Theta_e
325 329 328 331 332 324 324 329 324 321 324 323 320 326 331 327 323 329 328 327 329 327 323 322 319 317 317 315 314 314 313 314 313 313 312 311 310 310 309 309 309 309 308 307 307 307 307 307 308 308 308 307 307 307 307 306 305 305 304 304 304 304 304 304 304 303 302 302 302 302 303 303 303 302 301 300 300 300 300 300 300 300 299 299 299 299 298
326 329 330 336 337 330 331 335 333 332 331 331 334 337 332 329 328 330 326 326 327 324 322 320 318 316 315 314 314 314 313 314 313 312 312 311 310 309 309 308 308 308 307 307 307 307 307 307 307 307 307 307 307 306 306 305 305 304 304 304 303 303 303 303 304 303 302 301 301 301 301 302 303 302 301 300 300 300 300 300 299 299 298 298 298 298 298
326 327 329 330 332 332 331 329 328 332 333 332 333 332 328 329 329 326 325 326 325 321 319 318 316 315 315 314 314 314 313 314 313 312 311 310 309 309 308 308 308 307 307 307 307 307 307 307 306 306 306 307 307 306 305 304 304 304 303 303 303 303 302 303 303 303 302 301 300 300 300 301 302 302 301 300 299 300 300 299 299 298 298 297 297 297 297
327 328 328 328 330 331 332 331 327 327 329 330 329 327 325 326 326 325 326 326 323 320 317 316 315 315 314 314 314 314 314 313 312 311 310 309 309 309 308 308 308 308 306 306 306 306 306 306 306 305 305 306 306 305 304 304 303 303 303 303 302 302 302 302 303 302 302 301 301 300 300 300 301 301 301 299 299 299 299 299 298 298 298 297 297 297 296
330 328 329 333 335 332 331 329 324 323 324 326 327 327 324 323 323 325 326 325 321 318 317 316 315 315 314 314 314 314 313 312 311 311 310 309 308 308 308 308 308 307 306 306 306 306 306 306 305 305 305 304 305 305 304 304 303 303 302 302 302 302 301 302 302 301 301 300 300 300 300 300 300 300 299 299 299 299 299 298 298 298 298 297 297 297 296
333 330 332 335 336 333 328 322 319 322 324 323 325 325 322 322 323 323 323 321 318 317 317 316 316 314 314 314 313 313 312 311 311 310 309 308 308 307 308 307 306 306 306 306 306 306 306 306 305 305 305 304 304 304 304 303 303 302 302 302 301 301 301 301 301 300 300 300 299 300 300 300 299 299 299 299 299 299 299 298 298 298 297 297 297 297 296
334 333 334 332 330 329 326 319 317 320 320 318 319 318 317 319 321 320 320 318 317 317 316 315 315 314 313 313 313 312 311 310 309 308 307 307 307 308 308 307 305 305 306 306 306 306 305 305 305 305 304 303 303 303 303 303 302 302 302 301 301 301 301 301 301 300 300 300 299 299 299 300 300 299 299 299 299 299 299 298 298 297 297 297 297 296 296
330 333 333 329 326 323 321 318 316 317 318 317 319 321 318 315 317 319 318 317 316 316 315 313 313 312 311 311 311 310 310 309 308 307 307 307 307 307 307 306 305 305 306 305 305 305 305 305 305 304 303 303 303 302 302 303 302 302 302 301 301 301 301 301 301 301 300 300 299 299 299 299 300 300 299 299 299 299 299 298 298 297 297 297 297 296 296
325 328 326 323 323 323 321 320 318 319 322 322 322 325 320 314 315 318 316 316 316 314 313 312 310 310 310 311 310 309 308 308 307 306 306 306 306 305 305 306 305 305 304 304 304 304 304 304 303 303 302 302 302 302 302 302 302 302 302 301 301 301 301 301 301 301 300 300 300 299 298 299 299 299 299 299 299 299 299 299 299 298 297 297 296 296 296
321 326 327 323 325 327 324 322 322 322 324 322 320 323 320 314 314 316 315 315 315 312 311 311 310 311 312 311 310 308 307 307 306 306 305 305 305 305 305 305 305 304 303 303 303 303 303 302 302 302 302 302 302 301 301 302 302 302 302 302 301 301 301 301 300 301 301 300 300 299 298 298 298 298 299 299 299 299 299 299 299 299 298 296 295 295 295
322 329 333 328 327 327 323 323 325 322 321 320 320 325 325 315 313 315 315 314 313 311 310 310 311 312 313 311 309 307 306 306 306 306 305 305 305 305 305 305 304 303 303 303 302 302 302 302 302 302 302 302 301 301 301 301 302 302 302 301 301 301 301 301 300 300 300 300 300 299 298 298 298 298 298 298 298 299 298 298 299 299 298 296 295 295 295
325 329 332 327 326 325 322 322 324 320 318 318 321 328 327 316 312 314 314 313 312 310 310 311 312 313 313 310 308 307 306 306 306 305 305 304 304 305 304 304 303 303 303 302 302 302 302 302 302 302 301 301 301 301 301 300 301 301 301 301 301 301 301 301 300 300 300 300 300 299 298 297 297 297 297 297 297 297 297 297 298 298 298 296 295 295 295
325 328 329 328 328 327 323 322 322 319 317 320 325 331 325 314 312 314 312 312 311 309 310 313 313 312 310 308 307 306 306 305 305 305 305 304 305 304 303 303 303 303 303 302 302 302 302 301 301 301 301 301 300 301 300 300 300 300 301 301 301 301 302 301 300 300 300 300 300 299 298 297 297 297 297 297 297 297 297 297 297 297 297 296 295 295 295
323 326 328 328 327 326 323 322 320 316 319 326 328 323 316 311 312 313 311 311 310 309 310 311 310 308 307 306 306 306 306 305 305 304 304 304 304 304 303 302 302 302 302 302 301 301 301 301 301 301 301 300 300 300 300 300 300 299 299 300 300 300 301 301 301 300 300 300 299 299 298 298 298 298 297 297 297 297 297 297 297 297 297 296 296 295 295
322 325 326 326 327 324 321 320 319 319 325 327 319 312 310 311 311 311 311 310 309 308 308 307 307 307 306 306 306 305 305 305 304 304 303 303 303 303 302 302 302 302 302 301 301 301 301 301 301 301 301 300 300 300 300 300 299 299 299 299 299 299 300 301 301 300 300 300 300 299 298 298 298 298 298 298 297 297 297 297 297 296 296 295 295 295 295
324 327 326 325 324 321 320 322 323 322 321 316 310 309 311 311 310 310 310 309 308 307 307 306 306 306 306 306 305 305 305 304 304 303 303 303 303 302 302 302 302 302 301 301 301 301 301 301 301 301 300 300 300 300 300 299 299 299 299 299 299 299 299 300 301 300 300 300 300 299 299 299 298 298 298 298 297 297 297 297 297 296 295 295 294 294 294
319 323 322 318 316 315 316 319 319 315 312 310 309 310 310 309 309 309 308 307 307 306 306 306 306 306 306 305 305 305 305 304 303 303 303 302 302 302 302 302 302 302 302 302 301 301 301 301 301 301 300 300 300 300 300 299 299 299 299 299 299 299 299 300 301 301 300 300 300 300 299 299 299 298 298 298 298 297 297 297 297 296 295 294 294 294 294
317 318 317 314 313 312 312 312 311 310 309 309 309 309 309 308 308 308 307 307 306 305 306 306 306 305 306 306 305 305 305 304 303 303 302 302 302 301 302 302 302 302 302 301 301 301 301 301 301 301 300 300 300 300 300 299 299 299 299 299 299 299 299 299 300 300 300 300 300 300 299 299 299 299 298 298 298 297 297 297 296 296 295 294 294 294 294
320 321 316 313 313 311 310 309 309 309 309 309 308 308 308 307 307 307 307 306 305 305 306 305 306 306 306 305 305 305 304 303 303 303 302 301 301 301 302 302 302 302 302 301 301 301 301 301 301 301 300 300 300 299 300 299 299 299 299 299 299 299 299 299 299 299 299 299 299 300 299 299 299 299 299 299 298 298 297 297 296 296 295 294 294 294 294
320 319 315 312 312 311 310 310 309 309 308 308 308 307 307 306 306 306 305 305 305 306 306 305 305 305 305 305 305 305 304 303 303 302 301 301 301 302 302 302 302 302 301 301 302 301 301 301 301 301 300 300 300 300 299 299 299 299 299 299 299 299 299 299 299 298 298 298 299 299 299 299 299 299 299 298 298 298 297 297 296 296 295 295 295 294 294
317 315 312 312 313 312 310 310 309 308 308 308 307 307 306 306 306 305 304 304 305 305 305 305 305 305 305 305 304 304 304 303 301 300 300 300 301 302 302 302 302 301 301 302 302 301 301 301 301 301 300 300 300 300 300 299 298 298 299 299 299 299 299 299 299 298 298 298 298 298 298 298 299 299 298 298 298 298 298 297 297 296 296 295 295 294 294
317 316 313 313 315 314 311 310 309 308 308 307 307 306 305 305 305 304 305 304 304 304 304 304 304 305 304 304 303 303 303 301 300 300 300 300 301 301 302 302 301 301 301 302 302 301 301 301 301 301 300 300 300 300 300 300 298 298 298 299 298 299 299 299 299 298 297 298 298 298 297 298 298 298 297 297 297 297 297 297 297 296 295 295 295 294 294
316 316 313 312 313 312 309 308 308 307 307 306 306 306 305 305 305 304 304 304 304 304 304 304 304 304 304 303 303 302 301 300 300 299 300 300 300 301 301 301 301 301 301 302 302 301 301 301 301 301 300 300 300 300 300 300 299 298 297 297 296 297 299 299 298 298 298 298 298 298 297 297 297 297 297 297 296 296 296 297 298 297 296 295 294 294 294
315 314 313 311 311 310 309 308 308 306 306 306 305 305 305 304 304 304 304 304 304 304 304 304 304 304 303 303 302 301 300 299 300 300 300 300 300 300 300 300 300 301 301 301 301 301 301 301 301 300 300 300 300 300 300 300 299 298 297 295 295 297 298 299 298 297 297 298 298 298 297 297 297 296 297 296 296 296 296 296 297 297 296 295 294 294 294
313 312 311 310 309 309 308 308 307 306 306 305 305 305 304 304 304 304 304 304 304 304 304 304 304 303 302 301 301 300 299 299 300 300 300 300 300 300 300 300 300 300 300 301 301 301 301 301 301 301 300 300 300 300 300 299 299 298 297 296 296 297 298 299 298 297 297 297 297 297 297 297 297 297 296 296 296 296 295 296 296 297 297 295 294 294 294
311 310 309 309 308 308 307 307 307 306 305 304 305 305 304 304 304 304 304 304 304 304 304 304 302 301 301 300 300 299 299 299 300 300 300 300 300 300 300 300 300 300 300 300 300 300 300 300 301 301 300 300 300 300 299 299 299 298 297 296 296 296 298 298 298 297 297 297 297 297 297 297 297 296 296 296 296 296 296 295 296 297 297 295 294 294 294
309 308 309 309 309 308 308 308 307 306 304 304 304 304 304 304 304 304 304 304 304 304 304 302 301 299 299 299 299 299 299 299 300 300 300 300 300 300 300 300 300 299 300 300 300 300 300 300 300 300 300 300 300 300 299 299 299 299 298 297 296 297 298 298 298 297 297 297 297 297 297 297 297 297 296 296 296 296 296 295 296 296 296 296 295 294 294
309 309 309 309 309 309 308 306 305 304 304 303 303 304 304 304 304 304 304 304 303 302 301 300 299 298 298 298 299 298 299 299 299 299 300 300 300 300 300 300 299 299 299 299 299 299 299 299 299 300 300 300 300 300 300 299 299 299 298 297 296 297 297 298 297 297 297 297 297 297 297 297 297 297 297 297 297 296 296 296 296 296 296 296 295 295 294
311 310 309 309 308 307 306 305 305 304 304 304 304 305 305 304 304 305 304 303 301 300 299 298 298 298 297 298 298 298 298 298 298 299 299 300 300 300 299 299 299 299 299 299 299 299 299 299 299 299 299 299 300 300 300 299 299 299 298 297 296 296 297 297 297 296 297 297 297 297 297 296 296 296 297 297 297 297 296 296 296 296 296 296 295 295 295
310 310 309 308 308 307 306 306 306 306 305 305 305 305 305 305 305 304 303 301 299 298 298 297 297 297 297 297 298 298 298 298 299 299 299 299 299 299 299 299 299 299 299 299 299 299 299 299 299 299 299 299 299 299 299 298 298 299 298 297 297 296 296 296 296 296 296 297 297 297 297 296 296 296 297 296 297 297 296 296 296 296 296 296 295 295 294
309 309 309 308 308 307 307 307 307 306 306 306 305 305 305 304 303 302 301 300 299 298 297 297 297 297 297 297 298 298 299 299 299 299 299 299 299 298 299 299 299 299 299 299 299 299 299 299 299 299 299 298 298 298 299 298 297 298 299 298 298 297 297 296 296 295 295 296 297 297 296 295 295 296 296 297 297 297 296 297 296 296 296 296 295 295 294
309 309 309 308 308 308 308 308 307 306 306 306 306 305 304 302 301 301 300 299 298 297 296 296 296 296 297 298 298 298 299 299 299 299 298 298 298 298 299 299 299 299 299 299 299 299 299 299 299 299 299 299 298 298 298 298 297 297 298 298 298 298 297 297 296 295 295 296 296 296 296 295 295 295 296 297 297 297 296 296 296 296 296 296 296 295 295
309 309 309 308 308 308 307 307 307 306 306 306 305 303 301 300 299 299 298 298 297 296 296 296 297 297 298 298 298 298 299 299 299 298 298 299 299 299 299 299 299 300 299 299 299 299 299 299 299 299 298 299 298 297 297 298 297 297 297 297 297 297 298 297 296 296 295 295 295 295 295 295 294 294 295 296 297 297 296 296 296 296 296 296 296 295 295
309 309 309 308 308 307 307 307 307 306 306 304 302 300 299 299 299 298 297 296 296 296 296 296 297 297 298 298 298 298 299 298 297 298 299 299 300 300 300 300 299 300 300 299 299 299 299 299 299 299 298 299 298 297 297 297 297 297 297 297 297 297 297 297 296 296 296 295 295 295 295 295 295 295 295 296 297 297 296 296 296 296 296 296 296 295 295
307 308 307 306 306 305 305 306 306 305 304 303 301 300 300 299 298 297 297 296 296 296 296 297 297 297 298 298 297 298 298 298 298 299 299 299 300 300 300 300 299 299 300 299 299 299 299 299 298 298 299 298 298 298 298 297 297 297 296 297 297 297 297 297 296 296 296 295 295 295 295 295 295 295 295 296 297 296 296 296 296 296 296 296 296 295 295
306 308 307 306 305 304 303 303 302 302 301 301 300 300 299 298 298 297 297 297 297 297 297 297 297 297 297 297 297 298 298 299 299 299 299 299 299 299 300 299 299 299 299 299 299 299 300 299 299 299 299 299 299 299 298 298 298 297 296 296 297 297 297 296 296 296 296 295 295 295 295 295 295 295 295 296 296 296 296 296 296 296 296 296 296 296 295
306 306 305 305 304 302 302 301 301 300 300 300 299 299 299 298 298 298 297 297 297 297 297 297 297 297 297 297 298 298 299 299 299 299 299 299 299 299 299 299 299 299 299 299 299 299 300 300 299 298 298 298 299 299 298 298 298 297 296 296 297 297 297 296 296 295 296 295 295 295 296 295 295 295 295 296 296 296 296 296 295 296 296 296 296 296 295
305 304 304 304 303 301 301 301 301 300 300 299 299 300 299 299 298 298 298 298 297 297 297 298 298 297 297 297 298 298 299 299 299 299 299 299 298 299 299 299 299 299 299 299 300 299 300 300 299 297 297 297 298 298 298 298 298 297 296 296 297 297 296 296 296 295 295 296 295 295 295 295 295 295 296 296 296 296 295 295 295 295 295 296 296 296 295
305 304 303 303 303 301 300 301 301 301 300 300 300 300 300 300 300 300 299 299 298 298 298 298 297 297 296 296 296 297 298 299 299 299 299 299 298 299 299 299 299 299 299 299 300 300 300 300 300 298 297 298 298 298 298 298 298 297 296 296 297 297 296 296 296 295 295 295 295 295 295 295 295 295 296 295 295 295 295 295 295 295 295 296 296 295 295
305 302 301 302 301 301 300 300 300 300 300 300 300 300 300 300 300 300 300 299 299 298 298 298 297 296 296 295 296 296 298 299 299 299 299 299 298 298 298 298 298 299 299 299 299 300 300 300 300 299 298 298 299 299 299 298 297 296 296 296 297 297 297 296 296 296 296 296 295 295 295 295 295 295 295 295 295 295 295 295 295 295 295 295 296 295 295
303 301 301 301 300 300 300 300 300 300 300 301 301 301 301 301 301 300 300 299 298 298 298 298 297 297 297 297 297 298 298 299 299 298 298 297 297 296 296 297 297 298 299 299 300 300 300 300 300 300 299 298 298 299 299 298 296 296 295 296 296 297 297 296 296 296 296 295 295 295 295 295 295 295 295 295 295 295 295 295 295 294 295 295 295 295 295
301 300 300 299 299 300 300 299 300 300 300 301 301 301 301 301 302 301 301 300 299 298 299 299 299 299 298 298 298 298 298 298 298 297 296 296 296 295 295 296 297 298 299 299 300 300 300 300 300 299 299 298 298 299 299 298 296 296 296 295 296 297 297 296 296 296 296 296 295 295 295 295 295 295 295 295 295 295 295 295 295 294 295 295 295 295 295
300 299 299 299 299 300 300 299 300 300 300 301 301 301 301 302 302 302 301 301 300 299 299 299 299 299 298 298 297 297 296 296 297 296 296 296 296 296 296 296 296 297 298 299 300 300 300 300 300 299 298 297 298 299 299 298 297 296 295 295 295 296 297 297 297 296 296 296 296 295 295 295 295 294 294 295 295 295 295 295 295 294 294 295 295 294 294
299 300 300 299 299 300 300 300 300 300 300 300 301 301 301 302 302 301 301 301 300 300 299 299 298 298 298 297 297 296 296 296 296 296 296 296 296 296 296 296 296 297 297 298 299 300 299 300 299 299 298 297 297 298 298 298 297 297 296 295 295 296 296 297 297 297 296 296 296 296 296 296 295 294 294 295 295 295 295 295 294 294 294 294 294 294 294
299 300 300 300 300 301 300 300 300 301 301 301 300 301 301 301 301 301 302 301 301 300 300 299 298 298 298 298 298 298 298 298 297 297 296 295 295 296 297 297 296 296 297 298 299 299 299 299 300 299 298 298 297 297 298 297 297 297 297 296 295 295 296 297 297 297 297 296 296 296 296 295 295 294 295 295 295 294 295 295 294 294 294 294 294 293 293
300 300 300 300 301 301 301 301 301 301 302 301 300 300 301 301 301 301 302 302 302 301 301 300 300 300 299 299 300 299 299 299 298 298 298 297 296 297 297 297 297 297 297 298 299 300 300 300 299 299 298 298 298 297 298 297 297 297 298 297 295 295 296 297 297 297 297 296 296 296 295 295 294 294 295 295 295 294 294 294 294 294 294 293 293 293 293
300 300 300 301 301 301 302 302 302 301 301 300 299 300 301 301 301 301 302 302 302 302 301 301 301 301 301 301 300 299 298 298 297 298 298 298 297 297 297 297 297 298 299 300 300 300 300 300 299 299 299 299 298 297 297 297 297 298 298 297 295 295 296 297 297 296 296 296 296 295 295 295 295 295 295 295 294 294 294 294 294 294 294 293 293 293 293
300 300 300 301 302 302 301 301 301 300 300 300 300 301 302 302 301 301 302 302 302 302 302 301 301 301 301 301 300 300 300 299 298 298 299 299 298 298 298 297 297 298 299 300 300 300 300 300 299 298 298 299 298 298 297 297 298 298 298 297 295 295 296 297 296 296 295 295 295 295 295 294 294 294 294 294 294 294 294 294 294 294 294 293 293 293 293
301 301 301 301 301 301 301 300 300 300 300 301 301 301 302 302 301 301 302 302 302 301 302 302 301 301 301 301 301 301 301 300 300 300 301 300 300 299 299 298 298 298 298 298 299 300 300 299 298 298 298 298 298 298 298 298 298 298 297 295 294 295 296 297 296 295 295 295 295 294 294 294 294 293 294 294 294 294 294 294 294 294 294 294 293 293 293
301 301 301 301 301 300 300 300 299 299 301 301 301 301 301 301 300 300 302 302 302 301 301 302 302 302 301 301 301 301 301 301 301 301 301 301 301 301 300 300 299 299 299 299 299 300 299 298 298 298 298 298 298 298 298 298 298 297 296 295 295 296 296 296 296 295 295 294 294 294 294 294 294 294 294 294 294 294 294 294 294 294 293 293 293 293 293
301 301 300 301 301 301 301 301 301 301 301 302 302 301 301 301 300 300 302 302 302 301 301 301 301 301 301 301 301 301 301 301 301 301 301 301 301 301 301 301 300 300 299 299 300 299 299 298 298 298 298 298 298 298 298 297 296 295 295 295 295 296 296 296 295 295 295 295 294 294 294 294 294 294 294 294 294 294 294 294 294 294 293 293 293 293 293
301 302 301 301 301 301 301 302 302 302 302 302 301 301 301 301 300 300 301 301 302 302 302 301 301 301 301 301 301 301 301 301 301 301 301 301 301 301 301 301 301 300 300 299 299 299 299 298 298 298 298 298 297 297 297 296 295 294 294 295 295 296 296 296 295 295 295 294 294 293 293 293 293 293 293 293 293 293 293 293 293 293 293 293 293 293 293
Wind_Speed
4 4 2 4 7 3 2 3 2 4 7 9 7 4 4 8 8 6 10 15 15 14 16 17 16 16 16 15 14 13 12 12 12 12 12 11 10 10 9 8 8 8 8 10 13 15 15 15 15 15 16 16 16 17 18 20 22 23 23 23 24 24 25 25 24 25 27 28 27 25 23 22 21 23 25 26 26 26 26 25 24 24 24 25 25 26 26
6 6 6 8 9 7 7 8 5 2 4 7 6 2 3 4 5 11 18 13 7 7 10 11 12 12 13 13 12 12 13 13 13 13 12 11 10 10 9 9 8 7 9 11 13 13 13 14 15 15 15 15 15 16 18 22 24 24 25 25 25 26 27 27 25 25 28 29 28 28 26 24 21 21 24 26 26 26 25 25 25 26 26 26 27 27 27
6 6 7 11 11 10 9 9 10 8 7 8 8 6 6 9 8 13 18 12 5 5 8 11 11 11 12 13 13 13 13 13 13 13 12 11 11 10 9 9 8 7 9 12 13 13 14 15 16 18 18 17 16 18 21 24 25 25 25 26 27 27 28 27 25 25 26 27 28 28 28 26 23 21 23 26 26 26 25 25 25 26 28 28 29 29 28
3 4 5 10 11 12 9 8 10 10 5 5 5 3 3 8 13 15 14 8 5 7 11 12 11 11 13 15 14 13 12 12 14 13 12 12 11 10 9 9 8 7 8 11 12 12 14 16 17 19 20 20 19 19 23 25 26 25 25 26 27 27 27 27 26 25 24 24 25 26 27 27 25 22 23 25 27 26 25 25 25 26 27 28 29 29 29
1 6 2 4 8 8 4 4 5 5 2 3 6 5 4 10 16 13 8 7 9 13 15 15 14 13 14 14 13 12 12 13 13 13 13 12 10 10 10 9 8 8 10 12 12 13 15 17 18 18 19 21 21 21 23 25 26 26 26 26 26 26 26 26 25 24 23 23 23 23 24 25 25 24 24 25 26 26 26 26 27 27 28 28 29 30 30
2 6 4 3 5 3 2 5 3 2 2 3 7 8 5 6 6 4 6 10 14 15 16 17 16 14 13 11 10 10 11 12 12 12 12 11 10 10 9 9 9 10 12 12 11 13 17 18 18 17 17 19 21 22 24 25 26 26 25 24 24 24 24 23 23 22 22 23 23 22 22 23 24 24 25 25 25 25 25 26 27 28 28 28 29 29 30
2 3 3 4 2 3 3 5 4 4 5 7 12 12 7 4 4 9 13 16 17 15 14 15 14 12 11 9 7 8 9 9 11 13 12 11 11 10 8 8 10 12 12 10 10 14 18 18 17 17 19 20 22 23 23 24 26 25 24 23 23 22 22 21 21 21 22 23 23 23 22 21 21 22 23 23 24 24 25 26 27 27 27 28 28 29 30
2 2 4 3 3 3 3 5 5 7 7 5 10 10 6 6 3 12 16 15 15 15 13 13 13 11 10 8 5 7 10 9 11 12 10 10 11 10 10 10 11 12 12 12 13 15 17 17 17 18 21 23 23 22 21 23 25 23 22 22 22 20 20 20 19 20 20 21 22 23 23 21 20 20 20 21 22 24 24 25 26 28 28 27 28 29 30
3 3 2 2 0 2 1 1 1 4 5 3 3 4 1 5 1 9 16 16 15 16 14 13 13 13 13 9 4 5 10 11 12 12 12 13 13 13 15 15 13 13 15 17 20 20 20 21 21 21 21 22 21 19 19 21 23 22 21 21 20 19 18 19 19 18 18 20 22 23 23 22 21 20 19 19 20 22 23 24 25 27 28 28 28 29 31
3 4 3 2 1 3 4 6 7 4 5 5 5 5 0 3 3 7 15 18 17 16 15 15 15 14 12 8 4 6 10 12 13 14 15 17 17 17 17 15 14 18 22 24 24 24 24 24 23 22 21 20 20 20 19 20 21 20 20 19 18 18 18 19 19 18 16 17 21 23 23 22 22 21 20 19 18 19 21 22 23 25 27 28 28 29 30
2 4 3 3 3 3 6 9 7 4 5 7 6 4 1 4 6 8 14 18 17 17 17 17 17 13 10 8 6 7 11 13 14 14 14 16 18 18 16 16 19 23 25 24 24 24 23 22 21 20 19 19 19 20 20 20 19 19 18 18 16 16 17 19 19 18 16 17 19 23 24 23 22 22 21 21 19 19 20 20 20 21 25 28 29 29 29
3 4 2 2 2 3 5 7 6 6 5 4 5 1 5 9 11 10 13 17 16 16 16 16 15 11 9 10 9 10 13 16 17 17 15 16 18 17 16 19 23 24 24 23 21 20 20 20 19 17 17 18 18 18 18 18 16 16 16 14 13 13 15 18 18 17 16 17 18 21 23 23 23 23 22 22 21 21 21 20 20 20 23 26 28 29 29
4 4 2 1 2 4 5 6 6 7 5 4 3 5 6 11 15 12 13 16 15 15 14 11 8 4 6 11 12 13 15 15 16 19 19 18 19 18 19 22 24 23 22 21 20 19 20 20 17 16 16 18 19 18 17 17 18 18 16 13 11 10 11 16 18 16 16 17 18 19 21 22 21 21 22 22 22 22 23 23 23 23 23 25 27 28 29
3 2 2 1 3 4 5 7 6 6 5 2 5 5 5 14 17 14 13 14 14 13 11 7 6 8 12 14 14 14 15 14 15 18 20 19 18 18 20 22 24 24 22 20 20 20 19 16 15 15 17 18 19 18 17 17 17 18 18 16 12 9 9 12 16 16 15 15 17 18 19 20 20 20 21 22 22 23 23 24 25 24 24 25 26 28 29
2 2 2 1 3 4 8 9 5 3 4 4 4 3 7 12 15 14 13 13 13 12 10 9 11 14 15 15 14 13 14 13 15 18 19 18 18 18 20 23 24 24 22 20 19 18 16 16 17 16 16 17 19 19 17 15 14 15 17 17 15 13 11 12 14 15 14 14 15 16 17 18 19 19 19 21 22 22 23 24 24 24 25 26 27 28 29
2 2 3 3 3 3 5 8 5 3 3 5 7 8 8 9 10 11 11 11 12 12 12 13 15 15 15 14 14 13 13 13 15 17 17 18 19 19 22 25 26 25 22 20 19 18 18 19 19 17 15 16 18 19 17 14 13 14 16 17 18 17 14 12 14 14 13 12 13 14 15 16 17 18 18 19 20 21 22 23 23 24 25 26 27 28 28
2 4 4 3 3 2 1 3 3 3 4 5 8 10 10 9 9 9 9 11 12 12 14 15 15 14 14 14 14 13 12 12 14 16 17 19 20 21 25 27 26 24 22 21 20 19 18 18 17 15 15 16 18 19 16 14 13 15 16 18 20 21 18 14 13 12 11 11 11 13 13 14 15 15 16 17 18 19 20 21 21 22 24 26 27 27 28
2 0 1 3 3 3 5 5 4 5 6 6 8 10 10 9 9 8 9 11 11 12 14 15 13 13 14 15 14 13 11 11 14 16 17 18 21 23 26 26 25 24 22 20 18 18 17 16 16 16 15 15 17 19 17 14 14 15 17 19 21 21 20 17 14 12 10 10 10 11 12 12 12 13 14 15 15 16 18 19 19 20 22 25 26 27 28
2 1 2 2 3 4 6 7 6 6 6 5 7 9 9 9 10 10 10 11 11 12 14 15 13 13 15 15 14 12 10 10 14 15 16 18 21 24 25 25 25 24 21 19 16 15 15 14 15 16 16 15 15 16 16 15 13 14 16 18 18 18 18 18 16 14 13 12 10 10 10 10 10 11 12 13 13 14 15 17 18 19 21 23 25 26 27
3 2 2 3 6 5 4 6 6 6 7 7 7 8 9 10 11 11 11 12 11 10 12 14 15 14 14 15 15 12 10 11 13 15 17 20 22 25 26 26 25 23 21 19 18 16 15 15 15 17 17 15 14 13 13 14 13 13 14 14 15 15 14 14 14 14 14 13 12 11 10 9 9 10 11 12 11 11 13 15 16 18 19 21 22 24 25
4 3 4 7 7 5 4 5 6 6 8 9 10 10 11 12 13 13 12 13 13 12 13 14 16 16 14 13 14 13 10 10 13 17 20 23 24 26 27 25 24 22 20 20 19 18 18 18 17 17 17 16 14 12 12 12 13 13 14 13 14 14 13 12 11 12 14 13 13 12 11 9 8 8 10 11 10 10 10 12 14 16 17 19 20 22 23
3 4 6 7 6 4 3 5 7 8 9 11 12 12 12 13 14 14 14 14 14 15 17 17 16 14 13 13 14 13 11 13 17 20 24 25 26 27 27 25 23 22 21 19 19 19 18 17 15 14 16 16 14 12 11 10 11 13 13 13 13 13 14 13 12 12 14 15 13 12 11 9 8 9 9 10 10 10 9 10 11 14 16 17 18 19 20
4 6 7 6 6 6 5 6 8 9 9 12 12 12 13 13 13 14 14 14 14 14 16 19 18 13 13 17 17 13 12 17 21 24 26 27 26 26 27 26 24 23 21 20 20 19 17 15 14 14 16 16 14 12 11 10 11 13 13 12 11 11 13 14 13 12 13 14 13 11 10 10 10 10 10 10 10 10 10 9 9 11 14 16 16 16 17
3 4 6 5 7 8 7 8 9 8 9 12 12 11 12 12 13 14 13 13 14 13 13 16 19 17 17 19 19 16 16 20 24 27 28 29 28 28 27 26 24 23 22 21 19 18 16 14 14 16 17 16 14 12 10 10 11 12 13 13 11 11 13 14 13 11 12 13 13 11 8 9 11 12 11 10 10 11 12 10 8 8 11 14 16 15 14
6 6 5 7 10 10 8 8 9 8 10 12 11 11 12 13 14 16 14 13 16 17 14 13 17 19 19 20 21 20 20 22 26 29 29 29 29 28 27 26 24 23 22 21 19 17 15 14 14 16 16 14 12 11 10 10 10 11 13 14 12 10 12 12 11 10 10 11 12 11 9 9 11 11 10 9 9 11 13 12 9 7 9 12 15 15 13
9 9 10 10 10 9 8 8 7 6 10 13 12 11 14 16 17 18 18 17 19 20 18 16 17 20 21 23 24 23 22 24 28 31 29 27 27 28 27 25 23 23 22 22 20 18 16 14 13 14 14 11 10 9 9 10 11 11 12 13 12 10 10 11 10 8 8 9 11 12 11 9 9 10 10 9 8 10 11 12 11 9 8 11 14 14 13
9 12 13 11 8 6 7 8 7 7 10 13 13 12 16 20 20 19 19 20 19 20 20 20 22 23 24 25 25 25 25 26 27 27 26 26 26 27 26 24 23 22 21 20 19 18 16 14 14 14 11 9 8 8 9 10 11 11 11 12 12 10 9 9 8 7 8 9 10 11 10 9 8 9 10 9 8 9 10 11 11 9 7 10 12 13 13
7 8 10 10 9 7 6 8 10 9 11 14 15 15 17 18 17 15 14 15 16 16 18 22 25 25 24 25 26 25 24 24 24 24 25 26 26 27 26 24 22 21 20 20 19 18 16 15 14 13 11 8 8 8 9 9 11 10 10 12 12 11 9 7 7 8 8 8 9 10 10 9 8 8 8 8 9 9 9 9 10 9 7 9 11 12 12
6 5 6 8 9 9 9 10 10 10 11 13 15 16 15 14 13 11 11 12 13 14 16 21 25 25 25 26 26 24 22 21 23 24 25 26 26 27 26 25 23 21 20 20 21 19 17 15 14 14 12 9 8 8 8 8 8 9 9 10 10 9 8 7 6 7 7 7 7 8 9 10 9 7 6 7 9 9 9 9 9 9 8 8 10 12 13
5 7 8 8 10 11 11 10 9 9 10 11 12 12 13 12 11 10 10 12 13 13 16 20 23 23 24 26 26 26 25 24 25 26 27 27 27 27 26 24 23 21 19 21 22 20 17 15 14 13 12 9 7 8 7 7 7 8 9 8 7 7 7 6 5 5 5 6 5 5 7 7 7 6 5 5 7 8 8 8 9 9 9 8 9 11 11
7 8 10 10 10 11 11 9 9 9 9 9 11 12 12 11 11 11 10 11 12 14 18 21 22 22 23 26 27 28 29 28 27 27 27 28 27 25 24 24 23 21 19 20 21 20 18 16 14 12 11 8 7 8 8 7 7 9 9 6 4 4 3 3 4 5 4 4 3 3 5 7 8 6 4 3 4 6 7 8 8 8 8 8 8 9 9
9 9 10 9 9 10 9 8 9 10 9 10 11 11 9 10 11 11 10 11 14 18 20 21 21 22 25 27 29 30 29 28 27 27 28 28 26 25 24 24 22 20 19 21 23 21 19 17 14 12 12 10 7 7 8 7 7 8 6 4 2 2 1 1 3 4 5 5 4 2 4 7 9 9 6 4 2 4 6 7 7 8 8 6 7 7 7
10 8 8 9 10 10 10 9 9 10 10 9 8 8 9 12 13 12 13 16 19 20 21 21 23 26 28 29 29 29 27 26 25 26 27 26 24 23 24 23 20 18 18 21 22 21 17 15 14 13 12 10 7 6 7 7 6 5 4 2 1 1 1 1 3 4 5 5 5 4 5 6 8 11 9 4 1 3 5 6 6 7 7 5 5 6 6
10 8 8 8 8 9 10 9 8 7 8 7 8 9 12 15 15 16 19 20 20 20 21 24 26 28 29 28 28 28 26 22 20 21 24 23 20 20 20 20 21 21 19 18 20 19 16 15 14 13 12 10 7 6 7 6 5 4 5 3 0 0 3 5 5 4 4 4 4 5 7 8 9 10 9 4 3 3 4 5 6 6 5 4 4 5 6
9 7 7 8 8 8 8 7 6 7 8 7 8 10 14 17 18 20 21 22 22 23 25 27 27 28 28 27 26 26 26 24 22 23 23 20 18 19 19 19 22 22 19 17 18 19 16 13 13 14 13 11 9 7 6 5 2 2 4 4 1 1 5 7 6 4 4 3 3 5 8 10 9 8 5 4 6 5 4 5 6 6 4 2 3 4 5
11 8 6 7 10 11 10 9 9 9 9 9 10 11 14 18 22 23 24 25 26 26 27 27 26 26 27 26 26 27 27 27 27 26 23 20 19 20 21 22 23 22 20 18 18 18 15 13 14 14 14 13 11 9 8 6 4 3 3 3 2 3 7 8 6 4 4 2 2 5 8 8 7 6 5 6 7 5 5 6 7 6 3 1 2 4 4
13 11 7 7 10 13 12 12 14 15 14 14 15 16 17 20 24 26 27 27 27 27 27 27 27 26 26 28 30 29 29 29 29 27 24 21 21 22 22 22 21 19 18 19 19 18 17 16 14 14 14 15 13 12 10 7 6 5 3 3 3 5 9 9 6 4 3 2 3 5 6 6 6 6 6 7 7 5 6 6 7 6 3 2 1 4 4
13 14 12 11 13 14 14 16 18 19 19 18 18 19 22 24 25 26 26 27 27 28 28 28 28 27 28 28 29 28 29 30 29 27 24 22 21 21 21 20 19 18 18 19 18 17 19 19 16 14 14 15 14 12 10 9 8 7 5 3 4 6 9 8 6 4 3 1 2 4 5 6 7 7 7 7 6 5 5 6 7 7 4 2 0 3 4
10 12 13 14 14 14 16 18 21 22 22 21 19 20 24 26 25 25 25 26 27 28 28 28 28 27 27 26 25 26 29 30 30 28 26 23 22 21 21 20 20 19 17 17 15 14 18 22 20 15 14 15 14 12 12 11 10 9 6 4 4 5 8 8 6 5 4 2 2 3 4 5 6 7 7 6 5 4 3 5 7 7 5 2 0 2 3
6 9 12 14 14 14 16 18 20 22 25 26 24 23 24 25 24 24 24 25 28 29 30 30 28 26 25 25 24 26 29 31 30 29 27 25 23 22 20 21 22 20 17 16 15 14 17 23 23 18 16 17 16 14 13 12 10 9 8 5 3 4 7 9 8 6 5 4 3 3 3 3 4 6 6 5 3 2 2 4 6 6 4 2 1 2 3
8 12 14 15 15 16 17 19 20 22 24 26 27 27 27 26 24 24 25 27 29 31 33 33 30 27 27 29 29 30 31 31 30 29 27 26 24 21 19 21 23 22 18 17 17 16 18 24 25 20 17 18 17 15 14 13 11 10 9 6 5 6 8 10 10 9 7 5 5 4 4 3 4 4 4 4 3 3 2 3 4 4 3 2 2 2 3
11 14 15 14 15 18 19 20 21 21 22 24 27 29 29 27 25 26 28 30 30 31 33 34 33 32 31 31 30 30 31 31 30 28 27 27 26 24 22 23 25 23 19 16 15 15 19 25 25 20 17 17 16 15 15 15 13 10 8 7 7 8 9 8 9 10 9 7 6 7 6 5 4 5 5 5 4 3 3 2 2 2 1 2 3 2 2
15 17 16 14 16 19 21 22 22 20 20 23 28 30 30 28 26 27 29 30 30 30 31 31 31 31 31 30 27 26 28 29 28 28 27 27 27 26 24 23 23 23 19 16 15 19 23 24 22 19 17 17 16 15 17 18 15 11 8 7 8 11 11 8 8 10 11 10 9 9 9 8 7 6 5 5 5 4 4 4 3 2 1 1 1 1 1
19 20 18 17 19 20 21 22 22 20 19 22 27 30 30 28 25 26 29 30 29 30 30 29 27 28 29 29 27 26 26 27 27 27 25 23 22 24 24 22 20 20 20 17 18 21 24 23 20 18 17 16 15 16 18 19 16 11 8 8 9 12 13 10 9 9 11 12 11 10 11 10 9 6 4 5 6 6 6 6 5 3 2 3 1 1 2
19 20 21 20 20 21 22 22 21 21 23 25 28 30 30 28 24 24 28 31 30 30 30 30 29 29 29 30 29 29 29 30 30 29 25 20 19 23 25 24 21 20 21 20 19 21 23 23 22 20 18 16 16 17 19 19 16 12 10 9 10 11 13 11 9 8 10 12 12 11 10 9 8 6 5 6 7 7 7 7 7 5 4 4 2 3 4
19 21 22 21 20 22 25 26 26 27 28 26 23 25 28 29 24 23 26 30 32 31 31 32 33 33 32 32 31 30 30 30 30 31 29 26 24 24 25 24 23 22 22 21 20 21 23 25 25 22 19 18 19 20 20 20 18 15 12 11 11 12 12 10 9 8 9 10 10 8 8 9 8 6 6 7 8 8 8 8 8 7 6 5 3 4 4
19 20 21 21 21 23 26 28 27 26 24 20 16 18 25 28 25 22 24 28 32 33 34 34 35 35 34 32 31 29 27 26 27 29 30 30 28 25 22 22 22 23 24 23 22 22 24 26 26 22 20 20 21 22 22 20 18 16 15 13 13 12 11 8 6 5 6 7 8 8 10 9 8 6 7 8 9 9 9 9 8 8 7 5 4 4 4
19 19 20 22 23 24 25 26 24 20 19 18 18 20 24 27 25 23 24 27 31 33 34 34 34 34 34 32 30 28 26 24 24 25 28 30 29 26 23 22 24 26 27 26 24 23 25 27 25 22 21 21 22 23 23 20 18 17 16 15 14 13 10 8 6 8 8 8 8 9 9 8 7 8 9 9 9 8 9 10 9 8 7 6 5 6 6
21 20 21 22 23 23 23 21 18 17 19 21 23 24 26 26 24 22 24 27 29 30 31 33 34 34 34 32 30 28 26 24 22 21 23 26 27 26 24 23 25 27 28 27 25 25 27 27 24 22 21 22 23 24 22 19 17 16 16 15 15 14 11 9 9 10 10 9 8 7 7 8 8 9 10 9 8 8 9 10 10 8 7 7 7 8 8
21 20 20 20 21 22 22 20 18 19 22 24 24 24 26 25 22 20 22 25 26 25 26 28 30 32 33 34 32 30 29 27 24 21 19 20 24 26 26 26 27 27 26 26 27 28 27 24 22 21 21 22 23 22 20 18 17 16 16 16 15 13 11 10 11 12 11 10 9 9 9 9 8 8 9 9 8 8 9 10 10 9 8 8 8 9 10
21 20 20 21 23 24 25 24 23 24 27 28 27 26 26 26 24 23 24 25 25 24 23 23 23 25 28 30 30 29 27 26 25 24 21 21 23 25 26 28 29 28 26 27 30 30 27 23 22 21 21 22 21 19 17 16 16 16 17 17 15 13 11 12 13 12 12 11 11 10 10 10 9 9 8 8 8 7 8 9 10 9 10 10 11 11 11
23 23 24 24 24 25 25 26 26 28 30 31 30 28 27 27 26 24 24 25 27 28 26 24 22 22 24 25 26 25 24 23 23 23 22 21 23 25 26 27 27 27 27 29 31 29 25 22 22 21 21 21 20 18 16 16 16 16 17 17 15 13 12 13 14 13 13 13 13 12 11 10 10 10 9 9 9 9 10 11 12 12 13 13 13 12 12
Wind_Direction
108 113 105 82 95 108 78 85 200 189 149 152 172 213 207 163 154 172 172 159 156 167 168 161 157 153 146 146 146 145 143 138 134 135 134 130 124 121 117 113 110 107 101 96 94 95 97 99 100 106 112 113 108 104 101 98 97 93 86 79 74 70 67 70 74 73 67 63 60 58 57 56 56 55 50 46 46 46 46 46 42 37 33 31 28 25 23
52 54 70 79 85 78 52 35 10 12 128 138 138 97 65 95 120 145 150 146 132 144 153 145 141 140 136 136 139 141 140 139 139 138 136 132 129 127 122 117 114 110 105 101 99 99 99 97 96 99 110 118 111 101 103 103 98 91 84 78 73 70 67 69 76 76 67 62 59 57 56 57 58 58 51 46 45 45 44 43 39 35 33 32 29 26 24
24 24 65 80 87 88 73 41 22 30 63 87 99 110 93 74 82 122 130 119 93 117 126 123 130 134 133 137 141 143 143 143 141 139 135 134 132 129 124 121 119 114 108 103 101 104 105 101 98 97 103 114 112 104 105 104 97 90 86 80 75 72 70 71 77 77 69 63 60 58 58 58 60 60 52 46 44 45 43 41 38 36 34 33 31 27 25
354 339 63 90 91 83 72 41 14 7 25 96 114 125 129 122 122 124 124 125 145 147 132 128 135 139 139 144 146 147 148 147 145 142 139 137 135 130 127 124 119 114 114 112 110 112 112 106 102 99 99 106 111 109 107 103 97 92 87 83 78 75 73 75 77 76 71 66 62 60 59 60 60 60 54 48 46 45 44 41 38 36 33 31 28 25 23
307 303 317 102 83 71 52 357 350 343 343 113 104 72 90 131 133 137 152 161 151 143 139 139 144 148 149 151 152 152 151 149 145 142 139 137 134 130 125 122 123 129 134 131 122 116 115 111 108 104 102 104 105 106 107 105 99 94 90 86 83 78 77 78 77 75 71 68 66 62 61 60 60 58 55 50 48 46 44 41 38 35 32 29 26 23 21
215 284 307 45 69 98 253 299 293 213 206 127 103 85 78 108 115 117 128 133 137 143 146 146 147 152 152 151 156 155 150 148 144 138 136 133 130 129 126 127 137 144 145 139 129 121 118 115 113 107 104 106 103 102 108 109 101 95 93 90 86 82 80 79 77 74 71 69 67 64 62 60 58 56 53 50 49 47 44 41 38 35 32 28 26 23 20
170 293 21 76 141 228 275 338 10 96 114 111 97 75 33 18 99 112 117 130 142 143 141 140 138 141 139 135 142 142 137 139 136 132 134 132 130 131 130 136 148 152 153 150 137 129 124 121 117 108 100 103 103 101 107 110 104 97 95 93 89 85 83 81 79 75 71 68 66 63 62 61 57 55 52 49 48 45 42 40 37 35 32 29 26 23 19
110 36 47 114 206 283 4 18 39 89 108 114 92 71 5 336 120 134 130 133 138 132 130 132 128 124 115 96 92 120 124 125 126 127 132 132 131 134 138 146 152 153 154 145 131 126 125 121 117 108 100 102 106 104 104 109 109 101 97 96 91 85 84 83 81 78 72 68 65 61 60 60 57 54 50 47 45 41 39 39 37 35 33 30 26 23 19
101 99 62 68 22 296 32 40 228 153 158 188 108 103 306 314 286 147 137 135 137 133 131 131 125 118 109 92 72 111 120 123 124 125 129 132 133 139 145 149 144 135 128 121 116 115 114 112 110 108 102 100 104 104 101 107 111 106 101 99 92 85 84 82 80 80 75 70 65 59 57 57 55 51 48 44 41 37 35 34 33 32 31 30 28 24 21
99 109 92 78 140 245 215 211 229 208 171 167 130 110 26 295 255 168 144 142 144 139 136 136 131 123 119 123 146 141 131 130 127 126 131 134 138 145 149 145 132 120 115 112 110 109 107 106 106 106 103 98 99 98 96 104 115 114 106 101 93 86 85 83 81 80 77 74 68 60 55 55 54 51 48 44 41 37 33 30 28 27 27 28 29 27 24
114 106 115 163 197 243 216 203 208 188 165 159 125 87 265 213 200 179 153 149 149 146 146 145 141 138 142 154 169 158 143 135 131 131 133 137 143 149 148 136 125 118 114 112 110 107 106 106 106 105 104 99 97 98 97 101 113 119 112 102 93 89 88 86 84 81 80 79 71 61 57 57 56 52 50 47 44 41 37 32 28 25 25 27 29 28 27
140 120 125 192 217 255 220 196 178 157 155 129 107 196 231 184 175 180 165 156 153 152 152 152 153 158 162 162 164 156 141 134 133 136 137 142 148 146 138 130 124 119 117 115 111 107 107 109 109 109 107 99 94 100 101 95 96 107 114 107 96 93 91 88 86 83 80 79 72 63 60 61 60 57 53 50 47 44 41 36 32 29 27 26 26 26 26
132 126 124 223 262 253 211 184 169 154 127 94 147 221 218 166 164 175 168 157 155 156 157 158 160 149 129 137 145 143 137 132 133 137 143 150 151 143 135 131 126 121 119 115 109 110 114 114 114 117 112 97 88 95 101 93 87 91 98 99 98 103 101 92 87 84 82 79 73 66 63 62 62 60 56 53 50 46 42 38 35 32 29 25 23 23 23
125 119 104 63 281 251 177 157 160 152 137 173 218 218 170 156 161 166 163 158 156 156 151 136 123 114 116 128 136 138 137 135 135 143 151 153 149 142 137 133 127 123 120 115 111 114 116 117 121 123 112 94 86 90 95 95 92 88 81 78 83 97 110 104 91 84 84 80 74 69 65 61 60 60 58 55 51 47 42 39 37 34 30 24 20 18 19
119 76 86 122 252 220 154 140 149 174 177 200 203 143 133 152 158 158 158 157 154 151 138 121 125 127 127 133 137 135 136 135 139 149 152 146 143 139 135 133 132 128 124 120 118 116 114 115 117 117 111 99 90 88 91 97 99 89 76 72 75 82 98 112 101 87 83 80 73 69 65 58 57 58 56 54 50 46 43 39 38 35 30 24 19 16 15
125 135 175 205 248 237 159 144 161 201 191 170 152 135 135 150 156 155 155 153 150 146 135 131 133 132 133 139 139 136 137 138 144 150 147 141 143 139 132 132 134 133 130 126 122 117 114 113 112 111 112 107 94 85 89 101 102 90 78 74 74 74 84 108 108 92 83 78 70 65 61 54 54 55 53 51 49 47 44 41 39 36 29 23 19 15 11
154 184 215 263 294 301 61 111 141 139 123 133 140 137 140 150 155 156 152 146 145 140 136 136 137 137 140 142 140 140 141 141 148 152 145 141 143 136 128 129 132 130 128 124 119 117 116 115 115 115 115 109 96 87 91 104 104 92 82 76 73 73 79 93 100 92 84 77 68 63 57 50 49 50 48 46 47 47 45 43 40 36 30 24 19 15 10
160 178 343 2 16 41 57 62 80 104 113 126 132 131 137 144 144 145 145 142 141 142 141 139 138 142 145 142 140 144 143 143 151 151 144 143 143 136 130 129 129 127 127 126 126 127 127 125 122 118 113 107 98 92 94 104 103 91 83 77 75 75 78 84 87 83 77 71 63 58 52 46 45 45 43 41 43 46 47 44 41 37 30 25 20 15 11
138 6 337 46 76 89 93 84 75 75 85 108 126 129 135 137 134 134 134 133 136 141 141 139 139 145 146 142 143 147 146 149 154 149 142 144 144 139 136 135 134 134 136 136 135 135 140 140 131 122 118 114 107 98 93 97 100 93 84 78 73 72 74 79 80 76 71 69 65 58 51 46 43 41 39 38 39 44 47 45 42 38 30 24 20 15 10
115 150 185 114 81 71 83 93 99 102 98 100 108 115 123 125 124 125 129 132 137 140 140 140 141 144 148 148 148 151 151 152 152 146 143 145 145 142 141 141 142 142 141 136 128 124 131 137 131 126 124 119 113 107 96 92 96 98 92 83 74 67 66 70 72 69 67 70 71 65 56 47 41 40 41 38 35 40 46 45 41 38 31 25 20 16 12
90 112 147 124 90 59 53 83 106 120 120 119 117 117 121 124 124 127 131 134 139 142 145 147 145 146 152 154 151 151 152 150 148 144 144 145 144 141 142 144 146 145 142 136 127 120 121 124 123 126 128 120 114 116 107 91 88 96 97 90 80 70 62 65 70 67 63 67 73 72 63 51 43 45 48 44 36 33 40 43 42 39 33 27 22 19 19
157 185 172 151 125 113 135 133 125 124 125 124 125 126 129 131 134 137 136 137 142 146 150 153 151 147 150 153 150 148 147 146 146 146 146 145 144 142 144 147 148 146 144 141 134 127 124 124 125 129 131 124 120 124 119 97 87 94 98 92 82 71 65 71 79 71 61 62 71 73 67 58 53 54 57 54 42 32 31 38 43 41 36 30 25 21 22
198 181 165 152 120 116 139 139 129 129 127 125 129 134 136 137 141 142 140 142 145 147 152 155 153 147 147 150 148 142 139 142 145 146 146 145 144 144 146 147 146 146 146 143 138 134 130 125 124 127 129 125 123 127 127 113 99 94 90 85 82 78 76 80 84 74 58 55 60 64 64 62 60 58 60 59 48 35 31 33 39 40 37 34 31 26 23
108 128 141 133 114 121 139 137 130 131 129 126 130 134 135 137 141 141 141 144 146 146 150 153 152 149 146 146 145 141 139 140 140 141 144 145 144 145 146 147 147 148 148 146 143 142 139 130 121 120 121 119 118 122 127 124 111 96 83 77 80 90 93 89 81 70 56 47 47 50 57 64 62 58 60 62 51 37 34 35 36 36 35 34 33 31 27
118 121 120 114 114 122 130 123 120 127 130 129 130 134 137 139 140 140 140 142 146 149 148 147 149 148 144 142 143 142 138 135 136 138 140 143 144 144 146 149 152 152 151 149 148 149 148 142 129 120 117 117 122 125 128 129 123 105 84 73 75 93 101 92 79 71 58 43 40 46 59 71 67 60 59 60 49 37 36 37 35 30 30 32 33 32 28
116 116 106 99 106 117 121 114 115 127 133 131 131 135 139 139 139 141 143 145 150 152 149 144 144 145 144 143 143 141 136 133 135 138 139 140 143 145 148 152 154 152 150 148 147 148 149 147 141 133 126 125 130 131 131 136 134 118 91 76 75 90 102 92 80 69 50 40 51 64 73 79 74 63 59 57 45 35 34 33 30 28 28 30 31 31 26
116 120 114 106 109 129 138 134 135 139 136 133 132 134 138 140 140 141 143 146 149 150 148 145 144 143 144 144 142 140 137 135 136 139 142 144 146 148 152 155 153 149 149 149 148 149 148 146 146 145 138 131 128 126 130 143 144 128 101 85 80 87 100 97 79 56 45 57 73 77 74 72 71 64 59 51 39 36 34 29 24 24 26 27 28 28 25
116 119 120 128 141 151 143 132 131 132 132 133 135 137 139 140 141 141 143 146 145 142 143 146 146 144 143 144 142 140 139 140 141 144 147 150 153 155 158 159 156 153 154 154 153 152 150 149 151 150 146 141 137 128 123 138 149 142 116 95 86 86 99 99 71 51 62 85 88 74 63 62 61 57 49 37 31 37 38 29 22 20 21 22 23 24 22
106 93 94 114 128 129 125 125 128 131 135 138 141 142 143 144 145 145 147 147 142 139 142 147 148 146 144 145 145 144 143 144 147 150 154 158 160 160 159 159 159 160 161 159 157 155 155 155 154 151 150 151 154 147 128 121 142 156 138 110 95 93 101 98 70 59 82 103 92 68 57 54 48 44 37 25 23 28 32 28 24 19 14 14 18 19 19
106 105 105 111 119 124 129 134 138 143 147 147 145 145 147 148 147 147 148 146 142 142 145 146 145 145 144 145 147 149 150 152 154 157 160 161 159 159 161 163 164 166 165 163 160 159 159 159 155 152 154 156 161 166 149 116 126 158 154 127 106 104 105 98 78 74 97 115 98 63 47 39 34 32 30 17 10 13 16 19 19 14 8 12 20 19 18
110 115 118 122 129 133 136 140 145 149 152 150 148 148 149 149 148 146 145 143 142 144 146 145 143 144 146 149 151 152 154 156 159 161 162 160 158 162 166 167 169 171 172 169 166 162 160 161 159 158 160 159 160 167 157 125 122 148 160 154 134 120 108 97 83 75 85 112 111 54 24 18 13 7 359 350 359 8 6 5 12 10 2 10 26 23 15
117 121 125 130 136 137 138 144 147 150 152 151 151 151 148 145 146 145 143 143 144 144 145 144 144 146 148 149 150 152 154 158 161 162 161 161 164 169 172 172 173 175 176 175 171 165 162 163 164 165 164 161 162 166 160 143 132 140 153 166 149 111 68 91 99 81 75 87 89 30 0 6 8 5 352 324 346 23 12 0 7 7 357 8 33 25 8
134 142 148 153 151 147 150 154 151 150 150 148 146 145 139 138 139 140 140 142 143 143 145 148 149 149 148 148 149 151 154 156 157 159 161 165 169 173 176 178 176 171 170 172 172 169 167 167 168 170 171 171 173 172 167 166 164 156 154 149 110 79 261 199 117 96 82 77 64 25 359 357 3 6 2 345 5 48 20 4 7 3 354 10 41 25 3
154 160 161 159 154 153 157 158 149 142 138 134 134 139 138 136 137 139 140 141 142 145 150 151 151 150 148 149 151 152 152 152 153 158 163 168 172 175 178 180 177 170 167 169 171 172 173 171 170 173 177 180 183 173 158 158 167 181 196 205 239 295 202 173 135 110 93 76 56 18 1 358 1 6 8 22 105 81 22 11 15 5 354 16 47 25 6
147 140 139 144 147 146 144 142 139 137 135 134 140 144 142 141 140 140 141 144 148 151 152 152 152 151 150 150 152 154 155 157 159 162 164 168 175 182 185 181 175 172 172 171 171 174 177 178 177 180 182 184 189 188 176 169 171 196 202 205 215 132 163 158 141 121 107 89 52 6 1 8 18 24 37 96 115 92 47 29 25 13 4 35 45 19 7
141 136 140 153 151 140 131 132 138 137 133 135 141 143 144 144 144 145 148 151 153 154 153 152 151 150 151 154 158 160 161 163 165 166 165 165 168 175 178 174 170 172 175 176 176 180 186 187 186 190 193 193 193 196 198 208 240 254 199 177 163 162 167 162 146 131 133 119 49 16 13 22 39 55 87 123 118 84 46 33 24 16 21 76 43 6 359
147 146 149 157 147 134 130 141 146 139 135 140 145 146 146 147 148 149 152 153 154 155 155 153 152 154 157 162 165 165 166 168 170 170 169 165 163 165 169 170 172 178 183 185 185 191 197 195 190 194 202 202 200 200 202 212 235 244 216 164 146 160 168 168 157 147 155 135 49 40 38 48 68 88 110 121 110 76 55 50 38 31 45 101 40 353 351
153 152 152 157 150 137 138 150 153 146 141 143 147 149 150 150 151 151 152 153 157 159 159 158 159 161 163 165 166 168 170 173 175 176 175 172 169 169 171 174 180 187 192 195 197 203 206 202 196 197 202 201 198 198 199 207 226 234 214 158 141 159 171 174 169 164 174 166 63 63 61 66 82 107 121 117 100 82 74 60 43 39 53 101 251 343 345
153 151 152 157 155 145 143 151 155 153 149 148 150 152 154 154 154 153 154 157 162 163 163 162 162 162 163 164 167 172 175 176 178 181 183 182 182 183 184 187 192 198 202 204 208 214 211 204 200 202 203 199 196 196 195 202 221 228 210 167 143 165 181 186 186 185 198 207 138 107 93 82 93 114 127 122 105 95 81 51 37 40 55 89 127 348 346
152 151 152 156 157 152 148 151 157 158 155 153 153 155 158 158 156 154 155 160 165 168 168 165 162 162 165 168 171 176 179 180 181 185 187 188 190 192 195 198 202 207 210 215 224 232 222 209 204 208 210 205 203 203 200 200 211 220 215 204 192 191 194 198 202 206 217 219 191 157 142 127 123 127 134 138 136 127 92 57 46 46 54 75 80 358 337
158 156 153 154 156 155 152 153 157 158 157 157 158 160 162 162 159 156 157 161 166 169 169 168 166 168 172 177 179 180 181 183 185 189 191 191 191 192 199 207 210 210 214 224 235 238 223 210 207 211 214 211 209 209 205 200 202 212 219 226 228 213 206 210 216 221 227 231 220 200 190 190 178 162 158 165 174 173 142 85 63 52 55 75 76 18 327
162 158 154 153 156 156 153 152 153 156 159 163 164 164 166 168 167 164 164 165 167 169 170 173 177 180 181 182 182 182 182 185 188 191 194 196 195 194 200 209 210 207 212 228 235 222 207 205 207 212 214 213 212 209 204 199 201 212 226 233 221 204 203 219 234 231 228 234 234 225 224 226 214 195 191 197 196 188 173 136 96 73 78 87 78 46 335
166 162 156 154 156 155 153 153 154 156 162 167 168 168 171 174 173 170 169 168 170 172 175 178 182 184 183 182 182 182 185 188 190 193 198 203 204 204 207 210 206 202 207 220 222 208 200 202 206 209 212 215 214 209 203 201 203 214 232 238 218 205 210 238 260 246 235 237 238 230 230 233 229 217 211 205 197 192 187 180 166 146 127 119 98 57 356
166 163 159 157 156 153 153 156 156 156 162 170 171 172 175 177 177 175 174 173 175 178 180 183 184 183 182 182 183 185 188 190 192 195 199 204 209 214 217 216 210 204 205 212 214 209 206 207 209 211 214 216 215 209 205 204 206 216 237 248 233 219 222 242 264 255 244 246 246 239 235 234 229 223 214 200 197 201 199 189 184 184 183 180 182 344 341
163 163 162 160 157 155 157 160 161 162 166 171 173 175 179 183 183 180 177 178 180 183 185 186 185 184 185 188 191 194 198 198 198 198 198 201 211 218 218 215 213 210 208 210 215 216 217 217 217 217 218 218 214 209 207 208 211 220 238 253 251 237 231 241 261 269 263 261 259 250 238 228 222 219 213 204 205 211 209 201 202 211 211 207 237 312 326
163 164 164 163 162 161 164 167 168 168 168 170 174 180 186 189 190 185 182 184 187 189 191 192 191 191 192 195 198 201 203 203 204 206 207 210 216 219 215 211 211 210 209 212 220 226 225 221 219 218 219 218 213 210 211 213 216 223 236 251 255 246 237 245 263 270 262 256 251 235 215 208 211 215 212 208 208 213 214 214 218 224 226 235 272 307 313
165 166 166 166 165 165 166 168 169 167 166 168 176 188 193 195 195 193 191 193 194 195 194 195 195 197 199 201 200 201 201 202 207 214 219 222 226 228 221 212 208 206 208 215 223 226 222 217 214 214 218 218 215 214 215 216 219 228 240 249 248 240 239 249 256 239 218 216 215 201 192 197 209 217 215 213 213 215 219 225 230 231 234 250 280 299 300
168 169 169 169 168 167 167 167 167 167 170 175 182 188 194 199 201 197 192 191 193 194 195 197 198 200 202 202 202 204 204 203 207 216 222 226 230 234 232 222 213 211 214 220 223 220 215 213 211 212 216 218 217 217 218 222 227 236 244 245 239 233 235 238 226 207 199 200 201 198 200 214 232 237 227 221 220 225 232 236 238 239 244 262 283 290 289
173 173 171 170 170 170 169 168 169 175 181 184 186 188 191 196 200 197 191 188 188 190 195 199 201 202 202 202 204 208 211 212 214 222 227 227 229 232 231 226 222 222 224 227 226 219 212 211 212 214 216 217 217 217 221 228 235 241 244 242 238 235 235 229 217 211 211 214 220 226 234 241 240 230 221 220 229 242 243 240 240 244 252 267 282 285 281
175 174 174 174 175 176 175 174 178 183 186 188 193 194 191 188 189 191 193 194 194 193 193 196 199 203 205 206 208 212 215 216 218 223 227 227 228 229 231 230 231 231 230 227 222 215 210 209 212 215 215 215 217 221 226 234 240 243 244 243 239 234 228 220 215 216 223 234 246 255 254 243 231 221 221 229 244 252 245 236 237 245 256 268 280 283 277
175 178 181 182 183 184 185 186 188 190 191 193 197 198 192 188 188 190 191 194 197 198 198 199 202 204 206 208 211 214 216 216 215 216 218 220 222 226 230 234 237 237 231 222 215 212 210 210 213 215 217 219 223 228 236 243 247 247 245 242 236 229 220 217 219 225 235 245 251 252 248 240 235 234 236 241 248 250 241 235 239 251 265 273 278 278 275
181 184 187 187 187 189 192 195 197 197 197 197 198 197 193 191 192 193 192 191 194 197 201 208 214 215 212 211 213 217 219 220 218 216 215 214 214 216 221 228 233 232 225 216 210 209 210 212 215 219 223 227 230 234 238 243 246 247 244 240 234 227 223 225 232 238 244 248 249 248 247 245 244 245 249 254 257 258 253 249 251 261 272 276 275 273 272